DMSP 5D-2 F13 DEB, 42300

Orbit data source: Space-Track

DMSP 5D-2 F13 DEB, 42300 is space debris in SSO originally from a launch on Fri, 24 Mar 1995 UTC launched from the Air Force Western Test Range (AFWTR). Debris objects in space refer to the collection of defunct objects orbiting the Earth. Examples of debris include non-operational satellites, rocket bodies, and fragments generated from explosions, collisions, or faulty payload assembly.

Loading next visibility...
Identifier
42300, 1995-015HS
Orbit
SSO
Country
Flag of USUS
Related business
Manufacturer
Unknown
Mission
Spacecraft
Bus & Motor
Unknown
Mass
Unknown
Launch date (UTC)
1995-03-24 (30 years ago)
Launch vehicle
Unknown
Launch site
Air Force Western Test Range (AFWTR)
Object type
Payload
Rocket body
Debris
Shape & HBR
Unknown
Radar Cross Section
Small (<0.1 m²)

Expand to show TLE details & history
Last TLE update: 4 days ago

TLE from 4 days ago
0 DMSP 5D-2 F13 DEB
1 42300U 95015HS  25255.54664070  .00003671  00000-0  11219-2 0  9993
2 42300  98.6105 292.4539 0025696  45.7973 314.5321 14.42260861461056
Epoch: 2025-09-12T13:07Z
TLE epoch observation values (Epoch: 2025-09-12T13:07:09.756Z)
Latitude
-0.00003°
Longitude
103.87046°
Altitude
741.16 km
Speed
7.491 km/s
True Right ascension
19h 29m 48s
True Declination
0° 00' 00"
Sunlit
Object was in full shadow at epoch
Visualization orbit readout
Latitude
Unknown
Longitude
Unknown
Altitude
Unknown
Speed
Unknown
Apparent Right ascension
Unknown
Apparent Declination
Unknown
Sunlit
N/A
Visualization observer readout
Local Sidereal Time
01:49:51
Azimuth
Unknown
Elevation
Unknown
Doppler factor
Unknown
Orbital elements
Apogee altitude
766.474 km
Perigee altitude
729.851 km
Semi-major axis
7,126.299 km
Eccentricity
0.00257
Inclination
98.6105°
RAAN
292.4539°
Arg. of periapsis
45.7973°
True anomaly
314.32172°
Mean anomaly
314.5321°
Eccentric anomaly
314.42696°
Mean motion
3.60784 °/min
Orbital period
99.78 mins
BSTAR
0.0011219
Loading maneuver chart data...
Computing Atmospheric mass density...

Documentation

Showing up to 5 results
|